| time (UTC) | temp C | wind direction | speed KPH | gust KPH | rain 1hr cm | rain 24hr cm | rain mn cm | humidity % | barometer mb |
| 20260906151008 | 18 | 336 | 14.5 | 24.1 | 0.00 | 0.03 | 0.00 | 50 | 1025.9 |
| 20260906150009 | 18 | 338 | 14.5 | 24.1 | 0.00 | 0.03 | 0.00 | 50 | 1025.8 |
| 20260906145004 | 19 | 10 | 16.1 | 25.7 | 0.00 | 0.03 | 0.00 | 49 | 1025.9 |
| 20260906144007 | 18 | 5 | 16.1 | 27.4 | 0.00 | 0.03 | 0.00 | 49 | 1025.7 |
| 20260906143005 | 19 | 294 | 14.5 | 24.1 | 0.00 | 0.03 | 0.00 | 48 | 1025.7 |
| 20260906142008 | 18 | 331 | 12.9 | 27.4 | 0.00 | 0.03 | 0.00 | 48 | 1025.6 |
| 20260906141007 | 20 | 306 | 12.9 | 20.9 | 0.00 | 0.03 | 0.00 | 47 | 1025.7 |
| 20260906140009 | 18 | 316 | 17.7 | 33.8 | 0.00 | 0.03 | 0.00 | 51 | 1025.7 |
| 20260906134007 | 18 | 355 | 17.7 | 29.0 | 0.00 | 0.03 | 0.00 | 51 | 1025.8 |
| 20260906133004 | 19 | 272 | 16.1 | 20.9 | 0.00 | 0.03 | 0.00 | 48 | 1025.7 |
| 20260906132007 | 19 | 320 | 16.1 | 25.7 | 0.00 | 0.03 | 0.00 | 49 | 1025.6 |
| 20260906131005 | 18 | 337 | 14.5 | 25.7 | 0.00 | 0.03 | 0.00 | 51 | 1025.6 |
| 20260906130009 | 18 | 270 | 11.3 | 25.7 | 0.00 | 0.03 | 0.00 | 50 | 1025.6 |
| 20260906125005 | 18 | 312 | 17.7 | 37.0 | 0.00 | 0.03 | 0.00 | 52 | 1025.6 |
| 20260906124006 | 20 | 307 | 11.3 | 20.9 | 0.00 | 0.03 | 0.00 | 51 | 1025.6 |
| 20260906122006 | 18 | 288 | 17.7 | 25.7 | 0.00 | 0.03 | 0.00 | 51 | 1025.5 |
| 20260906121004 | 19 | 297 | 14.5 | 30.6 | 0.00 | 0.03 | 0.00 | 52 | 1025.5 |
| 20260906120007 | 19 | 287 | 14.5 | 29.0 | 0.00 | 0.03 | 0.00 | 52 | 1025.6 |
| 20260906115006 | 17 | 296 | 16.1 | 27.4 | 0.00 | 0.03 | 0.00 | 57 | 1025.6 |
| 20260906112007 | 18 | 5 | 16.1 | 29.0 | 0.00 | 0.03 | 0.00 | 55 | 1025.6 |
| 20260906111005 | 18 | 309 | 19.3 | 33.8 | 0.00 | 0.03 | 0.00 | 53 | 1025.5 |
| 20260906110011 | 18 | 298 | 16.1 | 38.6 | 0.00 | 0.03 | 0.00 | 55 | 1025.5 |
| 20260906105004 | 18 | 311 | 19.3 | 29.0 | 0.00 | 0.03 | 0.00 | 58 | 1025.6 |
| 20260906104007 | 17 | 304 | 19.3 | 32.2 | 0.00 | 0.03 | 0.00 | 60 | 1025.7 |
| 20260906103004 | 17 | 355 | 16.1 | 35.4 | 0.00 | 0.03 | 0.00 | 58 | 1025.5 |
| 20260906102005 | 18 | 336 | 14.5 | 30.6 | 0.00 | 0.03 | 0.00 | 63 | 1025.5 |
| 20260906101007 | 17 | 325 | 16.1 | 27.4 | 0.00 | 0.03 | 0.00 | 62 | 1025.5 |
| 20260906100006 | 16 | 328 | 17.7 | 33.8 | 0.00 | 0.03 | 0.00 | 62 | 1025.5 |
| 20260906093007 | 16 | 303 | 16.1 | 25.7 | 0.00 | 0.03 | 0.00 | 64 | 1025.4 |
| 20260906092006 | 17 | 278 | 16.1 | 33.8 | 0.00 | 0.03 | 0.00 | 61 | 1025.4 |
| 20260906085005 | 17 | 296 | 19.3 | 32.2 | 0.00 | 0.03 | 0.00 | 59 | 1025.3 |
| 20260906084004 | 17 | 340 | 20.9 | 38.6 | 0.00 | 0.03 | 0.00 | 59 | 1025.3 |
| 20260906083006 | 16 | 318 | 17.7 | 35.4 | 0.00 | 0.03 | 0.00 | 63 | 1025.2 |
| 20260906082006 | 16 | 304 | 17.7 | 32.2 | 0.00 | 0.03 | 0.00 | 63 | 1025.1 |
| 20260906081004 | 16 | 292 | 14.5 | 35.4 | 0.00 | 0.03 | 0.00 | 62 | 1024.9 |
| 20260906080011 | 16 | 316 | 22.5 | 40.2 | 0.00 | 0.03 | 0.00 | 61 | 1024.9 |
| 20260906075004 | 16 | 277 | 14.5 | 35.4 | 0.00 | 0.03 | 0.00 | 63 | 1024.9 |
| 20260906074005 | 15 | 321 | 19.3 | 35.4 | 0.00 | 0.03 | 0.00 | 66 | 1024.6 |
| 20260906072004 | 16 | 309 | 17.7 | 29.0 | 0.00 | 0.03 | 0.00 | 65 | 1024.4 |
| 20260906071006 | 15 | 289 | 16.1 | 30.6 | 0.00 | 0.03 | 0.00 | 67 | 1024.3 |
| 20260906070010 | 15 | 296 | 16.1 | 32.2 | 0.00 | 0.03 | 0.00 | 67 | 1024.2 |
| 20260906065008 | 15 | 273 | 17.7 | 32.2 | 0.00 | 0.03 | 0.00 | 69 | 1024.3 |
| 20260906064006 | 15 | 290 | 14.5 | 29.0 | 0.00 | 0.03 | 0.00 | 69 | 1024.3 |
| 20260906062008 | 15 | 305 | 11.3 | 24.1 | 0.00 | 0.03 | 0.00 | 69 | 1023.9 |
| 20260906061006 | 15 | 308 | 19.3 | 32.2 | 0.00 | 0.03 | 0.00 | 69 | 1023.9 |
| 20260906060018 | 14 | 277 | 17.7 | 38.6 | 0.00 | 0.03 | 0.00 | 70 | 1023.7 |
| 20260906055005 | 14 | 327 | 12.9 | 27.4 | 0.00 | 0.13 | 0.00 | 71 | 1023.6 |
| 20260906053007 | 14 | 306 | 9.7 | 19.3 | 0.00 | 0.13 | 0.00 | 71 | 1023.5 |
| 20260906052007 | 13 | 294 | 9.7 | 20.9 | 0.00 | 0.13 | 0.00 | 72 | 1023.4 |
| 20260906051006 | 13 | 322 | 11.3 | 24.1 | 0.00 | 0.13 | 0.00 | 72 | 1023.2 |
| 20260906050011 | 13 | 279 | 9.7 | 14.5 | 0.00 | 0.13 | 0.00 | 74 | 1023.2 |
| 20260906045005 | 13 | 282 | 8.0 | 14.5 | 0.00 | 0.15 | 0.00 | 74 | 1023.1 |
| 20260906044007 | 13 | 294 | 6.4 | 16.1 | 0.00 | 0.15 | 0.00 | 74 | 1023.1 |
| 20260906043006 | 13 | 288 | 8.0 | 19.3 | 0.00 | 0.15 | 0.00 | 74 | 1022.9 |
| 20260906042007 | 13 | 257 | 8.0 | 16.1 | 0.00 | 0.15 | 0.00 | 74 | 1022.9 |
| 20260906041007 | 13 | 262 | 8.0 | 14.5 | 0.00 | 0.15 | 0.00 | 75 | 1022.8 |
| 20260906040012 | 13 | 284 | 8.0 | 14.5 | 0.00 | 0.15 | 0.00 | 74 | 1022.7 |
| 20260906035005 | 13 | 310 | 9.7 | 19.3 | 0.00 | 0.15 | 0.00 | 73 | 1022.6 |
| 20260906034007 | 13 | 277 | 8.0 | 14.5 | 0.00 | 0.15 | 0.00 | 74 | 1022.5 |
| 20260906032008 | 12 | 278 | 9.7 | 16.1 | 0.00 | 0.15 | 0.00 | 75 | 1022.3 |
| 20260906025006 | 12 | 292 | 9.7 | 17.7 | 0.00 | 0.15 | 0.00 | 75 | 1022.1 |
| 20260906024005 | 12 | 279 | 9.7 | 16.1 | 0.00 | 0.15 | 0.00 | 75 | 1022.1 |
| 20260906022005 | 13 | 303 | 9.7 | 19.3 | 0.00 | 0.15 | 0.00 | 74 | 1022.0 |
| 20260906021007 | 13 | 302 | 9.7 | 16.1 | 0.00 | 0.15 | 0.00 | 74 | 1022.1 |
| 20260906020008 | 13 | 290 | 11.3 | 19.3 | 0.00 | 0.15 | 0.00 | 73 | 1022.0 |
| 20260906015007 | 13 | 288 | 11.3 | 19.3 | 0.00 | 0.15 | 0.00 | 73 | 1021.9 |
| 20260906014005 | 13 | 264 | 12.9 | 20.9 | 0.00 | 0.15 | 0.00 | 73 | 1021.8 |
| 20260906013007 | 14 | 277 | 11.3 | 25.7 | 0.00 | 0.15 | 0.00 | 72 | 1021.7 |
| 20260906012006 | 14 | 287 | 11.3 | 20.9 | 0.00 | 0.15 | 0.00 | 71 | 1021.6 |
| 20260906010008 | 15 | 286 | 12.9 | 22.5 | 0.00 | 0.15 | 0.00 | 71 | 1021.5 |
| 20260906005008 | 15 | 275 | 14.5 | 32.2 | 0.00 | 0.15 | 0.00 | 70 | 1021.5 |
| 20260906003006 | 14 | 264 | 9.7 | 17.7 | 0.00 | 0.15 | 0.00 | 74 | 1021.2 |
| 20260906002007 | 15 | 276 | 12.9 | 20.9 | 0.00 | 0.15 | 0.00 | 72 | 1021.2 |
| 20260906001006 | 15 | 278 | 12.9 | 24.1 | 0.00 | 0.15 | 0.00 | 71 | 1021.3 |
| 20260906000009 | 15 | 287 | 11.3 | 19.3 | 0.00 | 0.15 | 0.00 | 72 | 1021.2 |
| 20260905235005 | 15 | 301 | 14.5 | 29.0 | 0.00 | 0.15 | 0.00 | 73 | 1021.1 |
| 20260905234008 | 15 | 287 | 16.1 | 27.4 | 0.00 | 0.15 | 0.00 | 73 | 1021.1 |
| 20260905233005 | 14 | 288 | 14.5 | 27.4 | 0.00 | 0.15 | 0.00 | 75 | 1021.1 |
| 20260905232006 | 14 | 281 | 11.3 | 20.9 | 0.00 | 0.15 | 0.00 | 76 | 1021.1 |
| 20260905231005 | 14 | 278 | 9.7 | 17.7 | 0.00 | 0.15 | 0.00 | 77 | 1021.0 |
| 20260905230008 | 14 | 271 | 9.7 | 19.3 | 0.00 | 0.15 | 0.00 | 77 | 1021.1 |
| 20260905225003 | 14 | 265 | 9.7 | 17.7 | 0.00 | 0.15 | 0.00 | 78 | 1021.0 |
| 20260905224005 | 14 | 272 | 9.7 | 17.7 | 0.00 | 0.15 | 0.00 | 79 | 1020.9 |
| 20260905223003 | 14 | 290 | 8.0 | 14.5 | 0.03 | 0.15 | 0.00 | 80 | 1021.0 |
| 20260905222004 | 14 | 262 | 9.7 | 17.7 | 0.03 | 0.15 | 0.00 | 80 | 1021.0 |
| 20260905221003 | 13 | 320 | 11.3 | 17.7 | 0.03 | 0.15 | 0.00 | 81 | 1021.0 |
| 20260905220027 | 13 | 271 | 11.3 | 19.3 | 0.03 | 0.15 | 0.00 | 81 | 1020.9 |
| 20260905215005 | 13 | 296 | 11.3 | 20.9 | 0.03 | 0.15 | 0.15 | 81 | 1021.0 |
| 20260905214006 | 13 | 262 | 12.9 | 27.4 | 0.03 | 0.15 | 0.15 | 81 | 1021.0 |
| 20260905213005 | 14 | 319 | 14.5 | 30.6 | 0.00 | 0.15 | 0.15 | 78 | 1021.1 |
| 20260905212006 | 15 | 312 | 16.1 | 30.6 | 0.00 | 0.15 | 0.15 | 74 | 1021.0 |
| 20260905211003 | 15 | 309 | 17.7 | 30.6 | 0.00 | 0.15 | 0.15 | 72 | 1020.9 |
| 20260905205006 | 16 | 340 | 22.5 | 38.6 | 0.00 | 0.15 | 0.15 | 65 | 1020.7 |
| 20260905204004 | 17 | 348 | 24.1 | 56.3 | 0.00 | 0.15 | 0.15 | 61 | 1020.4 |
| 20260905202006 | 17 | 285 | 9.7 | 20.9 | 0.00 | 0.15 | 0.15 | 55 | 1019.6 |
| 20260905201003 | 17 | 284 | 11.3 | 19.3 | 0.00 | 0.15 | 0.15 | 56 | 1019.5 |
| 20260905195005 | 16 | 278 | 8.0 | 14.5 | 0.00 | 0.15 | 0.15 | 59 | 1019.3 |
| 20260905194005 | 16 | 264 | 8.0 | 12.9 | 0.00 | 0.15 | 0.15 | 58 | 1019.1 |
| 20260905193005 | 16 | 271 | 6.4 | 14.5 | 0.00 | 0.15 | 0.15 | 58 | 1019.0 |
| 20260905192007 | 17 | 246 | 9.7 | 14.5 | 0.00 | 0.15 | 0.15 | 56 | 1019.0 |
| 20260905191003 | 17 | 247 | 9.7 | 16.1 | 0.00 | 0.15 | 0.15 | 56 | 1018.9 |
| 20260905190008 | 17 | 299 | 8.0 | 17.7 | 0.00 | 0.15 | 0.15 | 56 | 1018.8 |
| 20260905185004 | 17 | 258 | 8.0 | 16.1 | 0.00 | 0.15 | 0.15 | 56 | 1018.7 |
| 20260905184006 | 17 | 295 | 8.0 | 14.5 | 0.00 | 0.15 | 0.15 | 55 | 1018.6 |
| 20260905183004 | 17 | 288 | 8.0 | 12.9 | 0.00 | 0.15 | 0.15 | 55 | 1018.5 |
| 20260905182006 | 18 | 278 | 9.7 | 16.1 | 0.00 | 0.15 | 0.15 | 54 | 1018.5 |
| 20260905181004 | 17 | 295 | 8.0 | 14.5 | 0.00 | 0.15 | 0.15 | 54 | 1018.4 |
| 20260905180007 | 18 | 286 | 11.3 | 19.3 | 0.00 | 0.15 | 0.15 | 53 | 1018.3 |
| 20260905175005 | 18 | 304 | 11.3 | 24.1 | 0.00 | 0.15 | 0.15 | 52 | 1018.2 |
| 20260905174004 | 18 | 284 | 8.0 | 20.9 | 0.00 | 0.15 | 0.15 | 52 | 1018.0 |
| 20260905173003 | 18 | 255 | 12.9 | 25.7 | 0.00 | 0.15 | 0.15 | 51 | 1018.0 |
| 20260905170008 | 19 | 278 | 11.3 | 19.3 | 0.00 | 0.15 | 0.15 | 50 | 1017.8 |
| 20260905165003 | 19 | 308 | 12.9 | 27.4 | 0.00 | 0.15 | 0.15 | 50 | 1017.7 |
| 20260905164005 | 19 | 275 | 9.7 | 19.3 | 0.00 | 0.15 | 0.15 | 50 | 1017.6 |
| 20260905163003 | 20 | 267 | 9.7 | 17.7 | 0.00 | 0.15 | 0.15 | 49 | 1017.6 |
| 20260905162006 | 20 | 305 | 11.3 | 20.9 | 0.00 | 0.15 | 0.15 | 48 | 1017.4 |
| 20260905161004 | 20 | 273 | 14.5 | 24.1 | 0.00 | 0.15 | 0.15 | 46 | 1017.3 |
| 20260905160006 | 21 | 283 | 19.3 | 32.2 | 0.00 | 0.15 | 0.15 | 45 | 1017.1 |
| 20260905155005 | 21 | 291 | 16.1 | 35.4 | 0.00 | 0.15 | 0.15 | 46 | 1017.0 |
| 20260905154007 | 21 | 279 | 17.7 | 35.4 | 0.00 | 0.15 | 0.15 | 47 | 1016.8 |